Data supplied by UK-AIR on 31/3/2022
All Data GMT hour ending 
Status: R =Ratified P=Provisional,P*=As supplied
,,Borehamwood Meadow Park,,,,,,,,,,,,,,,,,,,,,,,
Date,time,"Nitric oxide",status,unit,"Nitrogen dioxide",status,unit,"Nitrogen oxides as nitrogen dioxide",status,unit
 
01-01-2021,01:00,1.01823,R,ugm-3,16.87114,R,ugm-3,18.43240,R,ugm-3
01-01-2021,02:00,,,,,,,,,
01-01-2021,03:00,0.73185,R,ugm-3,14.79526,R,ugm-3,15.91741,R,ugm-3
01-01-2021,04:00,0.76367,R,ugm-3,15.13589,R,ugm-3,16.30683,R,ugm-3
01-01-2021,05:00,0.57275,R,ugm-3,11.87519,R,ugm-3,12.75340,R,ugm-3
01-01-2021,06:00,0.63639,R,ugm-3,15.96385,R,ugm-3,16.93963,R,ugm-3
01-01-2021,07:00,0.66821,R,ugm-3,17.13199,R,ugm-3,18.15656,R,ugm-3
01-01-2021,08:00,0.66821,R,ugm-3,16.98595,R,ugm-3,18.01053,R,ugm-3
01-01-2021,09:00,0.89095,R,ugm-3,16.49840,R,ugm-3,17.86450,R,ugm-3
01-01-2021,10:00,1.68644,R,ugm-3,16.73898,R,ugm-3,19.32481,R,ugm-3
01-01-2021,11:00,2.54557,R,ugm-3,17.41742,R,ugm-3,21.32057,R,ugm-3
01-01-2021,12:00,4.35928,R,ugm-3,18.18986,R,ugm-3,24.87400,R,ugm-3
01-01-2021,13:00,5.02750,R,ugm-3,20.37797,R,ugm-3,28.08669,R,ugm-3
01-01-2021,14:00,4.93204,R,ugm-3,19.79419,R,ugm-3,27.35653,R,ugm-3
01-01-2021,15:00,3.30924,R,ugm-3,20.09197,R,ugm-3,25.16607,R,ugm-3
01-01-2021,16:00,2.10009,R,ugm-3,22.33538,R,ugm-3,25.55548,R,ugm-3
01-01-2021,17:00,2.29101,R,ugm-3,27.15374,R,ugm-3,30.66658,R,ugm-3
01-01-2021,18:00,2.70467,R,ugm-3,28.02847,R,ugm-3,32.17557,R,ugm-3
01-01-2021,19:00,3.15014,R,ugm-3,28.85441,R,ugm-3,33.68456,R,ugm-3
01-01-2021,20:00,1.24096,R,ugm-3,18.05483,R,ugm-3,19.95762,R,ugm-3
01-01-2021,21:00,0.35002,R,ugm-3,9.05271,R,ugm-3,9.58939,R,ugm-3
01-01-2021,22:00,0.25456,R,ugm-3,7.93347,R,ugm-3,8.32379,R,ugm-3
01-01-2021,23:00,0.25456,R,ugm-3,5.64565,R,ugm-3,6.03596,R,ugm-3
01-01-2021,24:00,0.25456,R,ugm-3,5.15888,R,ugm-3,5.54919,R,ugm-3
02-01-2021,01:00,0.29763,R,ugm-3,5.98322,R,ugm-3,6.43958,R,ugm-3
02-01-2021,02:00,,,,,,,,,
02-01-2021,03:00,0.25511,R,ugm-3,6.68262,R,ugm-3,7.07378,R,ugm-3
02-01-2021,04:00,0.25511,R,ugm-3,5.41422,R,ugm-3,5.80538,R,ugm-3
02-01-2021,05:00,0.25511,R,ugm-3,4.68245,R,ugm-3,5.07361,R,ugm-3
02-01-2021,06:00,0.25511,R,ugm-3,5.17029,R,ugm-3,5.56146,R,ugm-3
02-01-2021,07:00,0.35078,R,ugm-3,6.82864,R,ugm-3,7.36649,R,ugm-3
02-01-2021,08:00,0.38267,R,ugm-3,9.75561,R,ugm-3,10.34236,R,ugm-3
02-01-2021,09:00,0.70156,R,ugm-3,12.63280,R,ugm-3,13.70850,R,ugm-3
02-01-2021,10:00,1.53067,R,ugm-3,15.84970,R,ugm-3,18.19669,R,ugm-3
02-01-2021,11:00,1.97711,R,ugm-3,14.57975,R,ugm-3,17.61128,R,ugm-3
02-01-2021,12:00,3.66722,R,ugm-3,12.86641,R,ugm-3,18.48940,R,ugm-3
02-01-2021,13:00,2.90189,R,ugm-3,9.55171,R,ugm-3,14.00121,R,ugm-3
02-01-2021,14:00,1.88144,R,ugm-3,9.65283,R,ugm-3,12.53767,R,ugm-3
02-01-2021,15:00,1.56256,R,ugm-3,11.11748,R,ugm-3,13.51336,R,ugm-3
02-01-2021,16:00,1.69011,R,ugm-3,19.11773,R,ugm-3,21.70919,R,ugm-3
02-01-2021,17:00,1.24367,R,ugm-3,30.63247,R,ugm-3,32.53939,R,ugm-3
02-01-2021,18:00,1.17989,R,ugm-3,32.97435,R,ugm-3,34.78349,R,ugm-3
02-01-2021,19:00,1.27556,R,ugm-3,33.70579,R,ugm-3,35.66162,R,ugm-3
02-01-2021,20:00,1.21178,R,ugm-3,27.21765,R,ugm-3,29.07568,R,ugm-3
02-01-2021,21:00,0.76533,R,ugm-3,19.26730,R,ugm-3,20.44079,R,ugm-3
02-01-2021,22:00,0.73344,R,ugm-3,18.04779,R,ugm-3,19.17239,R,ugm-3
02-01-2021,23:00,0.73344,R,ugm-3,15.51099,R,ugm-3,16.63558,R,ugm-3
02-01-2021,24:00,0.98856,R,ugm-3,12.92451,R,ugm-3,14.44027,R,ugm-3
03-01-2021,01:00,1.02266,R,ugm-3,7.62369,R,ugm-3,9.19175,R,ugm-3
03-01-2021,02:00,,,,,,,,,
03-01-2021,03:00,1.05462,R,ugm-3,4.78783,R,ugm-3,6.40489,R,ugm-3
03-01-2021,04:00,1.08658,R,ugm-3,5.81446,R,ugm-3,7.48052,R,ugm-3
03-01-2021,05:00,0.95875,R,ugm-3,7.52613,R,ugm-3,8.99618,R,ugm-3
03-01-2021,06:00,0.89483,R,ugm-3,6.20625,R,ugm-3,7.57830,R,ugm-3
03-01-2021,07:00,0.95875,R,ugm-3,7.91727,R,ugm-3,9.38732,R,ugm-3
03-01-2021,08:00,0.83091,R,ugm-3,10.36232,R,ugm-3,11.63637,R,ugm-3
03-01-2021,09:00,0.89483,R,ugm-3,9.48204,R,ugm-3,10.85409,R,ugm-3
03-01-2021,10:00,1.15049,R,ugm-3,7.76993,R,ugm-3,9.53400,R,ugm-3
03-01-2021,11:00,1.75770,R,ugm-3,5.76327,R,ugm-3,8.45837,R,ugm-3
03-01-2021,12:00,2.58861,R,ugm-3,5.51596,R,ugm-3,9.48511,R,ugm-3
03-01-2021,13:00,2.87623,R,ugm-3,4.73270,R,ugm-3,9.14286,R,ugm-3
03-01-2021,14:00,2.94015,R,ugm-3,4.87915,R,ugm-3,9.38732,R,ugm-3
03-01-2021,15:00,2.49274,R,ugm-3,4.14730,R,ugm-3,7.96944,R,ugm-3
03-01-2021,16:00,2.04532,R,ugm-3,6.30010,R,ugm-3,9.43621,R,ugm-3
03-01-2021,17:00,1.88553,R,ugm-3,7.66963,R,ugm-3,10.56074,R,ugm-3
03-01-2021,18:00,1.75770,R,ugm-3,9.57687,R,ugm-3,12.27197,R,ugm-3
03-01-2021,19:00,1.34224,R,ugm-3,9.13826,R,ugm-3,11.19634,R,ugm-3
03-01-2021,20:00,1.21441,R,ugm-3,7.28079,R,ugm-3,9.14286,R,ugm-3
03-01-2021,21:00,1.21441,R,ugm-3,6.74297,R,ugm-3,8.60504,R,ugm-3
03-01-2021,22:00,1.11854,R,ugm-3,5.56989,R,ugm-3,7.28495,R,ugm-3
03-01-2021,23:00,1.15049,R,ugm-3,5.03196,R,ugm-3,6.79603,R,ugm-3
03-01-2021,24:00,1.08658,R,ugm-3,4.39658,R,ugm-3,6.06264,R,ugm-3
04-01-2021,01:00,1.40921,R,ugm-3,3.26190,R,ugm-3,5.42265,R,ugm-3
04-01-2021,02:00,,,,,,,,,
04-01-2021,03:00,1.37718,R,ugm-3,3.47434,R,ugm-3,5.58599,R,ugm-3
04-01-2021,04:00,1.37718,R,ugm-3,2.78834,R,ugm-3,4.89999,R,ugm-3
04-01-2021,05:00,1.28110,R,ugm-3,2.64167,R,ugm-3,4.60599,R,ugm-3
04-01-2021,06:00,1.24907,R,ugm-3,4.11177,R,ugm-3,6.02699,R,ugm-3
04-01-2021,07:00,1.28110,R,ugm-3,4.50366,R,ugm-3,6.46799,R,ugm-3
04-01-2021,08:00,1.12096,R,ugm-3,5.58220,R,ugm-3,7.30098,R,ugm-3
04-01-2021,09:00,1.05691,R,ugm-3,5.28842,R,ugm-3,6.90898,R,ugm-3
04-01-2021,10:00,1.18502,R,ugm-3,4.94499,R,ugm-3,6.76198,R,ugm-3
04-01-2021,11:00,1.31313,R,ugm-3,5.18955,R,ugm-3,7.20298,R,ugm-3
04-01-2021,12:00,1.37718,R,ugm-3,5.87534,R,ugm-3,7.98698,R,ugm-3
04-01-2021,13:00,1.24907,R,ugm-3,5.09177,R,ugm-3,7.00698,R,ugm-3
04-01-2021,14:00,0.89677,R,ugm-3,4.94596,R,ugm-3,6.32099,R,ugm-3
04-01-2021,15:00,0.86474,R,ugm-3,5.43607,R,ugm-3,6.76198,R,ugm-3
04-01-2021,16:00,0.73663,R,ugm-3,5.97550,R,ugm-3,7.10498,R,ugm-3
04-01-2021,17:00,0.48041,R,ugm-3,6.56436,R,ugm-3,7.30098,R,ugm-3
04-01-2021,18:00,0.38433,R,ugm-3,5.87869,R,ugm-3,6.46799,R,ugm-3
04-01-2021,19:00,0.25622,R,ugm-3,5.43812,R,ugm-3,5.83099,R,ugm-3
04-01-2021,20:00,0.16014,R,ugm-3,4.50745,R,ugm-3,4.75299,R,ugm-3
04-01-2021,21:00,0.12811,R,ugm-3,3.57656,R,ugm-3,3.77299,R,ugm-3
04-01-2021,22:00,0.06406,R,ugm-3,3.67478,R,ugm-3,3.77299,R,ugm-3
04-01-2021,23:00,0.00000,R,ugm-3,3.08699,R,ugm-3,3.08699,R,ugm-3
04-01-2021,24:00,0.00000,R,ugm-3,2.54799,R,ugm-3,2.54799,R,ugm-3
05-01-2021,01:00,0.08559,R,ugm-3,1.63663,R,ugm-3,1.76787,R,ugm-3
05-01-2021,02:00,,,,,,,,,
05-01-2021,03:00,0.12839,R,ugm-3,2.30762,R,ugm-3,2.50448,R,ugm-3
05-01-2021,04:00,0.12839,R,ugm-3,1.71834,R,ugm-3,1.91519,R,ugm-3
05-01-2021,05:00,0.12839,R,ugm-3,1.96387,R,ugm-3,2.16073,R,ugm-3
05-01-2021,06:00,0.16048,R,ugm-3,3.73163,R,ugm-3,3.97771,R,ugm-3
05-01-2021,07:00,0.41726,R,ugm-3,10.90047,R,ugm-3,11.54026,R,ugm-3
05-01-2021,08:00,0.48145,R,ugm-3,13.84671,R,ugm-3,14.58492,R,ugm-3
05-01-2021,09:00,0.67403,R,ugm-3,12.52016,R,ugm-3,13.55366,R,ugm-3
05-01-2021,10:00,1.21968,R,ugm-3,13.00942,R,ugm-3,14.87956,R,ugm-3
05-01-2021,11:00,1.44435,R,ugm-3,8.58900,R,ugm-3,10.80364,R,ugm-3
05-01-2021,12:00,1.95790,R,ugm-3,11.38642,R,ugm-3,14.38849,R,ugm-3
05-01-2021,13:00,2.21467,R,ugm-3,10.10877,R,ugm-3,13.50456,R,ugm-3
05-01-2021,14:00,2.15048,R,ugm-3,7.16254,R,ugm-3,10.45989,R,ugm-3
05-01-2021,15:00,1.79742,R,ugm-3,5.83781,R,ugm-3,8.59381,R,ugm-3
05-01-2021,16:00,1.70113,R,ugm-3,5.64170,R,ugm-3,8.25006,R,ugm-3
05-01-2021,17:00,1.73322,R,ugm-3,6.32910,R,ugm-3,8.98667,R,ugm-3
05-01-2021,18:00,1.70113,R,ugm-3,5.44527,R,ugm-3,8.05363,R,ugm-3
05-01-2021,19:00,1.82951,R,ugm-3,6.03413,R,ugm-3,8.83935,R,ugm-3
05-01-2021,20:00,1.86161,R,ugm-3,6.08313,R,ugm-3,8.93756,R,ugm-3
05-01-2021,21:00,1.92580,R,ugm-3,7.16328,R,ugm-3,10.11614,R,ugm-3
05-01-2021,22:00,1.86161,R,ugm-3,7.40904,R,ugm-3,10.26346,R,ugm-3
05-01-2021,23:00,1.79742,R,ugm-3,8.04765,R,ugm-3,10.80364,R,ugm-3
05-01-2021,24:00,1.76532,R,ugm-3,7.26203,R,ugm-3,9.96882,R,ugm-3
06-01-2021,01:00,1.80130,R,ugm-3,5.96552,R,ugm-3,8.72747,R,ugm-3
06-01-2021,02:00,,,,,,,,,
06-01-2021,03:00,1.58686,R,ugm-3,3.99762,R,ugm-3,6.43077,R,ugm-3
06-01-2021,04:00,1.54397,R,ugm-3,4.57194,R,ugm-3,6.93933,R,ugm-3
06-01-2021,05:00,1.54397,R,ugm-3,5.70389,R,ugm-3,8.07127,R,ugm-3
06-01-2021,06:00,1.51180,R,ugm-3,4.17833,R,ugm-3,6.49639,R,ugm-3
06-01-2021,07:00,1.60830,R,ugm-3,5.80211,R,ugm-3,8.26813,R,ugm-3
06-01-2021,08:00,1.67263,R,ugm-3,7.22913,R,ugm-3,9.79380,R,ugm-3
06-01-2021,09:00,2.31595,R,ugm-3,8.55583,R,ugm-3,12.10691,R,ugm-3
06-01-2021,10:00,2.41245,R,ugm-3,7.66964,R,ugm-3,11.36868,R,ugm-3
06-01-2021,11:00,3.57043,R,ugm-3,7.41977,R,ugm-3,12.89435,R,ugm-3
06-01-2021,12:00,3.21660,R,ugm-3,6.38742,R,ugm-3,11.31947,R,ugm-3
06-01-2021,13:00,3.60259,R,ugm-3,5.99243,R,ugm-3,11.51633,R,ugm-3
06-01-2021,14:00,2.89494,R,ugm-3,5.84710,R,ugm-3,10.28595,R,ugm-3
06-01-2021,15:00,3.50609,R,ugm-3,11.65248,R,ugm-3,17.02841,R,ugm-3
06-01-2021,16:00,1.51180,R,ugm-3,7.52495,R,ugm-3,9.84301,R,ugm-3
06-01-2021,17:00,1.12581,R,ugm-3,12.93987,R,ugm-3,14.66609,R,ugm-3
06-01-2021,18:00,1.64047,R,ugm-3,24.11000,R,ugm-3,26.62535,R,ugm-3
06-01-2021,19:00,1.12581,R,ugm-3,19.38705,R,ugm-3,21.11326,R,ugm-3
06-01-2021,20:00,0.67549,R,ugm-3,14.61466,R,ugm-3,15.65039,R,ugm-3
06-01-2021,21:00,0.48249,R,ugm-3,15.25509,R,ugm-3,15.99490,R,ugm-3
06-01-2021,22:00,0.48249,R,ugm-3,14.95980,R,ugm-3,15.69961,R,ugm-3
06-01-2021,23:00,0.25733,R,ugm-3,15.10818,R,ugm-3,15.50275,R,ugm-3
06-01-2021,24:00,0.03217,R,ugm-3,12.00837,R,ugm-3,12.05769,R,ugm-3
07-01-2021,01:00,0.04298,R,ugm-3,11.11390,R,ugm-3,11.17980,R,ugm-3
07-01-2021,02:00,,,,,,,,,
07-01-2021,03:00,0.00000,R,ugm-3,14.69815,R,ugm-3,14.69815,R,ugm-3
07-01-2021,04:00,-0.03223,R,ugm-3,13.90909,R,ugm-3,13.85967,R,ugm-3
07-01-2021,05:00,-0.12894,R,ugm-3,14.05737,R,ugm-3,13.85967,R,ugm-3
07-01-2021,06:00,-0.16118,R,ugm-3,17.36210,R,ugm-3,17.11496,R,ugm-3
07-01-2021,07:00,0.25788,R,ugm-3,23.82201,R,ugm-3,24.21743,R,ugm-3
07-01-2021,08:00,2.35318,R,ugm-3,31.85484,R,ugm-3,35.46299,R,ugm-3
07-01-2021,09:00,8.83246,R,ugm-3,40.95861,R,ugm-3,54.50154,R,ugm-3
07-01-2021,10:00,14.95717,R,ugm-3,37.23964,R,ugm-3,60.17364,R,ugm-3
07-01-2021,11:00,11.95929,R,ugm-3,27.97666,R,ugm-3,46.31397,R,ugm-3
07-01-2021,12:00,8.47788,R,ugm-3,21.18137,R,ugm-3,34.18060,R,ugm-3
07-01-2021,13:00,7.92988,R,ugm-3,21.52840,R,ugm-3,33.68737,R,ugm-3
07-01-2021,14:00,5.18988,R,ugm-3,18.97247,R,ugm-3,26.93017,R,ugm-3
07-01-2021,15:00,3.22353,R,ugm-3,18.38694,R,ugm-3,23.32962,R,ugm-3
07-01-2021,16:00,3.73929,R,ugm-3,30.02543,R,ugm-3,35.75893,R,ugm-3
07-01-2021,17:00,6.22141,R,ugm-3,42.05214,R,ugm-3,51.59150,R,ugm-3
07-01-2021,18:00,3.06235,R,ugm-3,39.34959,R,ugm-3,44.04513,R,ugm-3
07-01-2021,19:00,1.19270,R,ugm-3,32.99301,R,ugm-3,34.82180,R,ugm-3
07-01-2021,20:00,1.45059,R,ugm-3,32.84421,R,ugm-3,35.06841,R,ugm-3
07-01-2021,21:00,1.03153,R,ugm-3,28.65313,R,ugm-3,30.23479,R,ugm-3
07-01-2021,22:00,1.22494,R,ugm-3,29.73761,R,ugm-3,31.61582,R,ugm-3
07-01-2021,23:00,1.93412,R,ugm-3,30.82042,R,ugm-3,33.78602,R,ugm-3
07-01-2021,24:00,1.45059,R,ugm-3,28.20788,R,ugm-3,30.43208,R,ugm-3
08-01-2021,01:00,0.43073,R,ugm-3,32.55669,R,ugm-3,33.21713,R,ugm-3
08-01-2021,02:00,,,,,,,,,
08-01-2021,03:00,0.96914,R,ugm-3,30.05051,R,ugm-3,31.53650,R,ugm-3
08-01-2021,04:00,1.55062,R,ugm-3,29.35664,R,ugm-3,31.73422,R,ugm-3
08-01-2021,05:00,1.93827,R,ugm-3,28.16908,R,ugm-3,31.14106,R,ugm-3
08-01-2021,06:00,2.71358,R,ugm-3,27.96889,R,ugm-3,32.12966,R,ugm-3
08-01-2021,07:00,2.71358,R,ugm-3,27.17801,R,ugm-3,31.33878,R,ugm-3
08-01-2021,08:00,20.90104,R,ugm-3,31.66777,R,ugm-3,63.71559,R,ugm-3
08-01-2021,09:00,19.64117,R,ugm-3,28.55767,R,ugm-3,58.67370,R,ugm-3
08-01-2021,10:00,34.75970,R,ugm-3,32.26630,R,ugm-3,85.56376,R,ugm-3
08-01-2021,11:00,20.57800,R,ugm-3,30.63076,R,ugm-3,62.18325,R,ugm-3
08-01-2021,12:00,6.04095,R,ugm-3,25.83282,R,ugm-3,35.09548,R,ugm-3
08-01-2021,13:00,3.74733,R,ugm-3,21.93512,R,ugm-3,27.68094,R,ugm-3
08-01-2021,14:00,2.61667,R,ugm-3,20.01093,R,ugm-3,24.02310,R,ugm-3
08-01-2021,15:00,1.03375,R,ugm-3,15.41895,R,ugm-3,17.00401,R,ugm-3
08-01-2021,16:00,0.58148,R,ugm-3,15.37096,R,ugm-3,16.26255,R,ugm-3
08-01-2021,17:00,0.22613,R,ugm-3,14.68007,R,ugm-3,15.02680,R,ugm-3
08-01-2021,18:00,0.38766,R,ugm-3,14.97613,R,ugm-3,15.57053,R,ugm-3
08-01-2021,19:00,0.41996,R,ugm-3,17.00267,R,ugm-3,17.64660,R,ugm-3
08-01-2021,20:00,0.48457,R,ugm-3,19.37512,R,ugm-3,20.11811,R,ugm-3
08-01-2021,21:00,0.41996,R,ugm-3,18.83159,R,ugm-3,19.47552,R,ugm-3
08-01-2021,22:00,0.41996,R,ugm-3,19.67190,R,ugm-3,20.31583,R,ugm-3
08-01-2021,23:00,0.38766,R,ugm-3,15.27271,R,ugm-3,15.86711,R,ugm-3
08-01-2021,24:00,0.38766,R,ugm-3,11.21944,R,ugm-3,11.81383,R,ugm-3
09-01-2021,01:00,0.34532,R,ugm-3,9.31203,R,ugm-3,9.84152,R,ugm-3
09-01-2021,02:00,,,,,,,,,
09-01-2021,03:00,0.19424,R,ugm-3,6.68700,R,ugm-3,6.98484,R,ugm-3
09-01-2021,04:00,0.12950,R,ugm-3,5.99367,R,ugm-3,6.19223,R,ugm-3
09-01-2021,05:00,0.09712,R,ugm-3,6.34054,R,ugm-3,6.48946,R,ugm-3
09-01-2021,06:00,0.09712,R,ugm-3,11.98785,R,ugm-3,12.13677,R,ugm-3
09-01-2021,07:00,0.06475,R,ugm-3,13.91993,R,ugm-3,14.01921,R,ugm-3
09-01-2021,08:00,0.06475,R,ugm-3,14.66300,R,ugm-3,14.76228,R,ugm-3
09-01-2021,09:00,0.55036,R,ugm-3,16.39530,R,ugm-3,17.23917,R,ugm-3
09-01-2021,10:00,2.65466,R,ugm-3,18.46930,R,ugm-3,22.53972,R,ugm-3
09-01-2021,11:00,5.17981,R,ugm-3,20.49245,R,ugm-3,28.43472,R,ugm-3
09-01-2021,12:00,6.99275,R,ugm-3,21.08123,R,ugm-3,31.80329,R,ugm-3
09-01-2021,13:00,10.19776,R,ugm-3,23.10225,R,ugm-3,38.73859,R,ugm-3
09-01-2021,14:00,6.44239,R,ugm-3,18.20976,R,ugm-3,28.08795,R,ugm-3
09-01-2021,15:00,4.66183,R,ugm-3,21.78206,R,ugm-3,28.93010,R,ugm-3
09-01-2021,16:00,3.98198,R,ugm-3,33.82188,R,ugm-3,39.92750,R,ugm-3
09-01-2021,17:00,15.37757,R,ugm-3,42.15810,R,ugm-3,65.73671,R,ugm-3
09-01-2021,18:00,43.83417,R,ugm-3,42.51486,R,ugm-3,109.72631,R,ugm-3
09-01-2021,19:00,75.13966,R,ugm-3,44.89376,R,ugm-3,160.10630,R,ugm-3
09-01-2021,20:00,85.62878,R,ugm-3,41.39327,R,ugm-3,172.68891,R,ugm-3
09-01-2021,21:00,56.58946,R,ugm-3,41.78140,R,ugm-3,128.55069,R,ugm-3
09-01-2021,22:00,14.95671,R,ugm-3,40.62375,R,ugm-3,63.55705,R,ugm-3
09-01-2021,23:00,1.68344,R,ugm-3,29.37067,R,ugm-3,31.95191,R,ugm-3
09-01-2021,24:00,0.67985,R,ugm-3,18.87179,R,ugm-3,19.91421,R,ugm-3
10-01-2021,01:00,0.51909,R,ugm-3,17.20882,R,ugm-3,18.00474,R,ugm-3
10-01-2021,02:00,,,,,,,,,
10-01-2021,03:00,0.25954,R,ugm-3,10.27581,R,ugm-3,10.67377,R,ugm-3
10-01-2021,04:00,0.22710,R,ugm-3,8.04186,R,ugm-3,8.39008,R,ugm-3
10-01-2021,05:00,0.19466,R,ugm-3,6.35402,R,ugm-3,6.65249,R,ugm-3
10-01-2021,06:00,0.22710,R,ugm-3,4.81491,R,ugm-3,5.16313,R,ugm-3
10-01-2021,07:00,0.22710,R,ugm-3,5.70853,R,ugm-3,6.05674,R,ugm-3
10-01-2021,08:00,0.32443,R,ugm-3,6.40326,R,ugm-3,6.90072,R,ugm-3
10-01-2021,09:00,0.48665,R,ugm-3,7.99141,R,ugm-3,8.73760,R,ugm-3
10-01-2021,10:00,1.20040,R,ugm-3,11.11688,R,ugm-3,12.95746,R,ugm-3
10-01-2021,11:00,2.14125,R,ugm-3,12.75228,R,ugm-3,16.03548,R,ugm-3
10-01-2021,12:00,3.04965,R,ugm-3,13.84168,R,ugm-3,18.51775,R,ugm-3
10-01-2021,13:00,3.30920,R,ugm-3,16.37279,R,ugm-3,21.44683,R,ugm-3
10-01-2021,14:00,3.08210,R,ugm-3,18.01179,R,ugm-3,22.73761,R,ugm-3
10-01-2021,15:00,2.82255,R,ugm-3,20.49486,R,ugm-3,24.82272,R,ugm-3
10-01-2021,16:00,1.91414,R,ugm-3,22.08632,R,ugm-3,25.02130,R,ugm-3
10-01-2021,17:00,1.75193,R,ugm-3,28.68966,R,ugm-3,31.37591,R,ugm-3
10-01-2021,18:00,1.78437,R,ugm-3,28.19311,R,ugm-3,30.92910,R,ugm-3
10-01-2021,19:00,0.90841,R,ugm-3,20.40147,R,ugm-3,21.79434,R,ugm-3
10-01-2021,20:00,1.42750,R,ugm-3,22.73321,R,ugm-3,24.92201,R,ugm-3
10-01-2021,21:00,1.13551,R,ugm-3,21.29439,R,ugm-3,23.03548,R,ugm-3
10-01-2021,22:00,0.51909,R,ugm-3,14.79274,R,ugm-3,15.58867,R,ugm-3
10-01-2021,23:00,0.55153,R,ugm-3,13.50186,R,ugm-3,14.34753,R,ugm-3
10-01-2021,24:00,0.42176,R,ugm-3,12.45970,R,ugm-3,13.10639,R,ugm-3
11-01-2021,01:00,0.30345,R,ugm-3,11.40911,R,ugm-3,11.87439,R,ugm-3
11-01-2021,02:00,,,,,,,,,
11-01-2021,03:00,0.35764,R,ugm-3,10.54656,R,ugm-3,11.09492,R,ugm-3
11-01-2021,04:00,0.58522,R,ugm-3,10.99364,R,ugm-3,11.89097,R,ugm-3
11-01-2021,05:00,0.78030,R,ugm-3,9.05268,R,ugm-3,10.24912,R,ugm-3
11-01-2021,06:00,0.84532,R,ugm-3,8.20669,R,ugm-3,9.50283,R,ugm-3
11-01-2021,07:00,0.94286,R,ugm-3,12.28614,R,ugm-3,13.73183,R,ugm-3
11-01-2021,08:00,2.04828,R,ugm-3,22.48215,R,ugm-3,25.62281,R,ugm-3
11-01-2021,09:00,1.69064,R,ugm-3,21.63744,R,ugm-3,24.22972,R,ugm-3
11-01-2021,10:00,1.95074,R,ugm-3,15.36777,R,ugm-3,18.35887,R,ugm-3
11-01-2021,11:00,1.30050,R,ugm-3,10.04617,R,ugm-3,12.04023,R,ugm-3
11-01-2021,12:00,1.30050,R,ugm-3,9.89691,R,ugm-3,11.89097,R,ugm-3
11-01-2021,13:00,1.33301,R,ugm-3,8.00619,R,ugm-3,10.05011,R,ugm-3
11-01-2021,14:00,1.36552,R,ugm-3,6.81202,R,ugm-3,8.90579,R,ugm-3
11-01-2021,15:00,1.23547,R,ugm-3,8.25526,R,ugm-3,10.14962,R,ugm-3
11-01-2021,16:00,1.10542,R,ugm-3,6.86256,R,ugm-3,8.55752,R,ugm-3
11-01-2021,17:00,1.04040,R,ugm-3,7.70856,R,ugm-3,9.30382,R,ugm-3
11-01-2021,18:00,0.91035,R,ugm-3,7.36069,R,ugm-3,8.75653,R,ugm-3
11-01-2021,19:00,0.84532,R,ugm-3,6.26632,R,ugm-3,7.56246,R,ugm-3
11-01-2021,20:00,0.81281,R,ugm-3,5.71913,R,ugm-3,6.96542,R,ugm-3
11-01-2021,21:00,0.81281,R,ugm-3,4.97284,R,ugm-3,6.21913,R,ugm-3
11-01-2021,22:00,0.74779,R,ugm-3,4.07748,R,ugm-3,5.22407,R,ugm-3
11-01-2021,23:00,0.65025,R,ugm-3,4.12753,R,ugm-3,5.12456,R,ugm-3
11-01-2021,24:00,0.58522,R,ugm-3,2.53563,R,ugm-3,3.43296,R,ugm-3
12-01-2021,01:00,0.56475,R,ugm-3,1.85978,R,ugm-3,2.72571,R,ugm-3
12-01-2021,02:00,,,,,,,,,
12-01-2021,03:00,0.35840,R,ugm-3,1.79391,R,ugm-3,2.34345,R,ugm-3
12-01-2021,04:00,0.32582,R,ugm-3,1.24554,R,ugm-3,1.74512,R,ugm-3
12-01-2021,05:00,0.26065,R,ugm-3,1.89393,R,ugm-3,2.29359,R,ugm-3
12-01-2021,06:00,0.42356,R,ugm-3,2.84079,R,ugm-3,3.49024,R,ugm-3
12-01-2021,07:00,0.29324,R,ugm-3,4.68602,R,ugm-3,5.13564,R,ugm-3
12-01-2021,08:00,0.32582,R,ugm-3,10.32018,R,ugm-3,10.81975,R,ugm-3
12-01-2021,09:00,0.55389,R,ugm-3,17.94817,R,ugm-3,18.79745,R,ugm-3
12-01-2021,10:00,0.94487,R,ugm-3,19.29324,R,ugm-3,20.74202,R,ugm-3
12-01-2021,11:00,0.65163,R,ugm-3,12.41335,R,ugm-3,13.41251,R,ugm-3
12-01-2021,12:00,0.61905,R,ugm-3,9.62125,R,ugm-3,10.57045,R,ugm-3
12-01-2021,13:00,0.61905,R,ugm-3,8.47446,R,ugm-3,9.42366,R,ugm-3
12-01-2021,14:00,0.65163,R,ugm-3,9.72087,R,ugm-3,10.72003,R,ugm-3
12-01-2021,15:00,0.61905,R,ugm-3,9.67111,R,ugm-3,10.62031,R,ugm-3
12-01-2021,16:00,0.48873,R,ugm-3,11.16732,R,ugm-3,11.91669,R,ugm-3
12-01-2021,17:00,0.52131,R,ugm-3,24.18084,R,ugm-3,24.98017,R,ugm-3
12-01-2021,18:00,2.67170,R,ugm-3,42.07438,R,ugm-3,46.17093,R,ugm-3
12-01-2021,19:00,31.89746,R,ugm-3,59.83725,R,ugm-3,108.74600,R,ugm-3
12-01-2021,20:00,29.90998,R,ugm-3,56.90140,R,ugm-3,102.76272,R,ugm-3
12-01-2021,21:00,35.83984,R,ugm-3,51.89764,R,ugm-3,106.85130,R,ugm-3
12-01-2021,22:00,53.82492,R,ugm-3,49.00190,R,ugm-3,131.53230,R,ugm-3
12-01-2021,23:00,38.28347,R,ugm-3,41.46948,R,ugm-3,100.16997,R,ugm-3
12-01-2021,24:00,31.83229,R,ugm-3,39.94306,R,ugm-3,88.75189,R,ugm-3
13-01-2021,01:00,21.07075,R,ugm-3,33.25026,R,ugm-3,65.55829,R,ugm-3
13-01-2021,02:00,,,,,,,,,
13-01-2021,03:00,5.22415,R,ugm-3,26.61771,R,ugm-3,34.62797,R,ugm-3
13-01-2021,04:00,3.16714,R,ugm-3,25.42452,R,ugm-3,30.28073,R,ugm-3
13-01-2021,05:00,0.75097,R,ugm-3,19.98508,R,ugm-3,21.13655,R,ugm-3
13-01-2021,06:00,1.40399,R,ugm-3,31.97553,R,ugm-3,34.12828,R,ugm-3
13-01-2021,07:00,3.29775,R,ugm-3,36.36717,R,ugm-3,41.42364,R,ugm-3
13-01-2021,08:00,5.38741,R,ugm-3,36.36103,R,ugm-3,44.62161,R,ugm-3
13-01-2021,09:00,7.93418,R,ugm-3,35.35419,R,ugm-3,47.51976,R,ugm-3
13-01-2021,10:00,13.22364,R,ugm-3,34.63910,R,ugm-3,54.91506,R,ugm-3
13-01-2021,11:00,18.90490,R,ugm-3,33.42318,R,ugm-3,62.41029,R,ugm-3
13-01-2021,12:00,18.83960,R,ugm-3,33.42337,R,ugm-3,62.31035,R,ugm-3
13-01-2021,13:00,20.73336,R,ugm-3,36.06612,R,ugm-3,67.85682,R,ugm-3
13-01-2021,14:00,21.28842,R,ugm-3,39.31242,R,ugm-3,71.95422,R,ugm-3
13-01-2021,15:00,13.74605,R,ugm-3,40.68372,R,ugm-3,61.76070,R,ugm-3
13-01-2021,16:00,2.35087,R,ugm-3,29.47434,R,ugm-3,33.07895,R,ugm-3
13-01-2021,17:00,1.20809,R,ugm-3,20.68329,R,ugm-3,22.53566,R,ugm-3
13-01-2021,18:00,1.04483,R,ugm-3,20.03418,R,ugm-3,21.63623,R,ugm-3
13-01-2021,19:00,1.14278,R,ugm-3,20.53358,R,ugm-3,22.28582,R,ugm-3
13-01-2021,20:00,0.75097,R,ugm-3,15.63784,R,ugm-3,16.78932,R,ugm-3
13-01-2021,21:00,0.68567,R,ugm-3,15.23829,R,ugm-3,16.28964,R,ugm-3
13-01-2021,22:00,0.48977,R,ugm-3,11.94096,R,ugm-3,12.69192,R,ugm-3
13-01-2021,23:00,0.52242,R,ugm-3,10.74163,R,ugm-3,11.54266,R,ugm-3
13-01-2021,24:00,0.39181,R,ugm-3,7.74392,R,ugm-3,8.34469,R,ugm-3
14-01-2021,01:00,0.26176,R,ugm-3,4.40591,R,ugm-3,4.80728,R,ugm-3
14-01-2021,02:00,,,,,,,,,
14-01-2021,03:00,0.85073,R,ugm-3,27.13862,R,ugm-3,28.44305,R,ugm-3
14-01-2021,04:00,0.78529,R,ugm-3,20.42866,R,ugm-3,21.63275,R,ugm-3
14-01-2021,05:00,0.75257,R,ugm-3,17.82481,R,ugm-3,18.97873,R,ugm-3
14-01-2021,06:00,0.94889,R,ugm-3,20.47826,R,ugm-3,21.93320,R,ugm-3
14-01-2021,07:00,1.96321,R,ugm-3,28.78791,R,ugm-3,31.79813,R,ugm-3
14-01-2021,08:00,3.69739,R,ugm-3,39.89973,R,ugm-3,45.56898,R,ugm-3
14-01-2021,09:00,2.45402,R,ugm-3,31.54066,R,ugm-3,35.30344,R,ugm-3
14-01-2021,10:00,1.83233,R,ugm-3,23.12972,R,ugm-3,25.93926,R,ugm-3
14-01-2021,11:00,1.63601,R,ugm-3,18.07264,R,ugm-3,20.58115,R,ugm-3
14-01-2021,12:00,1.96321,R,ugm-3,17.82131,R,ugm-3,20.83153,R,ugm-3
14-01-2021,13:00,2.02866,R,ugm-3,20.02446,R,ugm-3,23.13502,R,ugm-3
14-01-2021,14:00,2.35586,R,ugm-3,21.57586,R,ugm-3,25.18813,R,ugm-3
14-01-2021,15:00,1.86505,R,ugm-3,21.17668,R,ugm-3,24.03638,R,ugm-3
14-01-2021,16:00,0.75257,R,ugm-3,14.92041,R,ugm-3,16.07433,R,ugm-3
14-01-2021,17:00,0.39264,R,ugm-3,12.31751,R,ugm-3,12.91956,R,ugm-3
14-01-2021,18:00,0.45808,R,ugm-3,13.36891,R,ugm-3,14.07130,R,ugm-3
14-01-2021,19:00,0.42536,R,ugm-3,12.66795,R,ugm-3,13.32016,R,ugm-3
14-01-2021,20:00,0.39264,R,ugm-3,9.51327,R,ugm-3,10.11531,R,ugm-3
14-01-2021,21:00,0.39264,R,ugm-3,9.86380,R,ugm-3,10.46584,R,ugm-3
14-01-2021,22:00,0.42536,R,ugm-3,9.91378,R,ugm-3,10.56599,R,ugm-3
14-01-2021,23:00,0.39264,R,ugm-3,10.16425,R,ugm-3,10.76630,R,ugm-3
14-01-2021,24:00,0.52352,R,ugm-3,13.66918,R,ugm-3,14.47191,R,ugm-3
15-01-2021,01:00,0.43719,R,ugm-3,10.23617,R,ugm-3,10.90652,R,ugm-3
15-01-2021,02:00,,,,,,,,,
15-01-2021,03:00,0.32790,R,ugm-3,7.52658,R,ugm-3,8.02934,R,ugm-3
15-01-2021,04:00,0.39348,R,ugm-3,5.46887,R,ugm-3,6.07219,R,ugm-3
15-01-2021,05:00,0.39348,R,ugm-3,6.42236,R,ugm-3,7.02567,R,ugm-3
15-01-2021,06:00,0.52463,R,ugm-3,8.47950,R,ugm-3,9.28393,R,ugm-3
15-01-2021,07:00,0.65579,R,ugm-3,11.49013,R,ugm-3,12.49566,R,ugm-3
15-01-2021,08:00,0.91811,R,ugm-3,19.76965,R,ugm-3,21.17739,R,ugm-3
15-01-2021,09:00,1.21321,R,ugm-3,16.00505,R,ugm-3,17.86529,R,ugm-3
15-01-2021,10:00,2.29527,R,ugm-3,16.15253,R,ugm-3,19.67189,R,ugm-3
15-01-2021,11:00,2.62316,R,ugm-3,15.85050,R,ugm-3,19.87262,R,ugm-3
15-01-2021,12:00,3.01664,R,ugm-3,15.24718,R,ugm-3,19.87262,R,ugm-3
15-01-2021,13:00,4.68890,R,ugm-3,19.95967,R,ugm-3,27.14921,R,ugm-3
15-01-2021,14:00,4.82006,R,ugm-3,21.26406,R,ugm-3,28.65471,R,ugm-3
15-01-2021,15:00,4.32822,R,ugm-3,20.16142,R,ugm-3,26.79793,R,ugm-3
15-01-2021,16:00,8.06622,R,ugm-3,34.45307,R,ugm-3,46.82110,R,ugm-3
15-01-2021,17:00,32.88788,R,ugm-3,38.54776,R,ugm-3,88.97515,R,ugm-3
15-01-2021,18:00,87.15453,R,ugm-3,40.30054,R,ugm-3,173.93562,R,ugm-3
15-01-2021,19:00,97.08975,R,ugm-3,44.93937,R,ugm-3,193.80824,R,ugm-3
15-01-2021,20:00,100.46707,R,ugm-3,48.74371,R,ugm-3,202.79107,R,ugm-3
15-01-2021,21:00,113.02545,R,ugm-3,50.06298,R,ugm-3,223.36626,R,ugm-3
15-01-2021,22:00,114.46819,R,ugm-3,66.26812,R,ugm-3,241.78356,R,ugm-3
15-01-2021,23:00,71.28440,R,ugm-3,60.87064,R,ugm-3,170.17187,R,ugm-3
15-01-2021,24:00,31.87141,R,ugm-3,55.46245,R,ugm-3,104.33126,R,ugm-3
16-01-2021,01:00,2.05915,R,ugm-3,36.00259,R,ugm-3,39.15991,R,ugm-3
16-01-2021,02:00,,,,,,,,,
16-01-2021,03:00,0.52574,R,ugm-3,14.53263,R,ugm-3,15.33875,R,ugm-3
16-01-2021,04:00,0.52574,R,ugm-3,7.99480,R,ugm-3,8.80092,R,ugm-3
16-01-2021,05:00,0.72289,R,ugm-3,7.29017,R,ugm-3,8.39859,R,ugm-3
16-01-2021,06:00,0.98576,R,ugm-3,7.44031,R,ugm-3,8.95180,R,ugm-3